STARLINK-34216

Last updated on Thu Jul 03 2025 00:02:06 GMT+0000 (Coordinated Universal Time)

1 64337U 25124W 25183.58335648 .00048925 00000+0 83578-3 0 9999 2 64337 43.0003 98.8454 0001682 257.9888 187.8428 15.50538160 4632
UTC large
Height (km)
Speed (km/s)
/
Latitude / Longitude
Inclination (degrees)
Orbital Period (minutes)
Azimuth
Elevation
Range (km)
Doppler Factor

Next 0 passes for location: London (51.5072 / 0.1276)

Sorry there are no passes over London.